Regional Weather Roundup
Issued by NWS

Home | Current Version | Previous Version | Graphics & Text | Print | Product List | Glossary On
Versions: 1 2 3 4 5 6 7 8 9 10 11 12 13 14 15 16 17 18 19 20 21 22 23 24 25 26 27 28 29 30 31 32 33 34 35 36 37 38 39 40 41 42 43 44 45 46 47 48 49 50
000
ASUS45 KCYS 261010
RWRWY

WYOMING REGIONAL WEATHER ROUNDUP
NATIONAL WEATHER SERVICE CHEYENNE WY
300 AM MST WED NOV 26 2014

NOTE:  "FAIR" INDICATES FEW OR NO CLOUDS BELOW 12,000 FEET
WITH NO SIGNIFICANT WEATHER AND/OR OBSTRUCTIONS TO VISIBILITY.

WYZ001-261100-
YELLOWSTONE NATIONAL PARK

CITY           SKY/WX    TMP DP  RH WIND       PRES   REMARKS
LK YELLOWSTONE   N/A     32  29  88 VRB5      30.09R WCI  27
W YELLOWSTONE  NOT AVBL

$$
WYZ002>013-054>058-071-098>099-261100-
NORTHERN WYOMING

CITY           SKY/WX    TMP DP  RH WIND       PRES   REMARKS
JACKSON        CLOUDY    39  34  81 SW20      30.12R WCI  30
CODY           CLOUDY    25  23  93 S3        30.13S
GREYBULL       LGT SNOW  27  26  96 W5        30.18S FOG     WCI  22
WORLAND        LGT SNOW  27  25  92 CALM      30.18S VSB 1
SHERIDAN       CLOUDY    29  21  72 W13       30.16R WCI  19
BUFFALO        CLOUDY    26  18  71 NW7       30.15R WCI  18
GILLETTE       CLOUDY    26  23  88 NW7       30.15R WCI  18
HULETT           N/A    N/A N/A N/A MISG        N/A
NEWCASTLE      CLOUDY    27  21  80 NW8       30.15R WCI  18

$$
WYZ014>020-022>026-101>103-261100-
CENTRAL WYOMING

CITY           SKY/WX    TMP DP  RH WIND       PRES   REMARKS
BIG PINEY      MOCLDY   N/A N/A N/A NW14      30.14S
PINEDALE       CLOUDY    32  32 100 NW15      30.14S WCI  22
DUBOIS         LGT SNOW  23  21  93 SE5       30.07S WCI  17
LANDER         CLOUDY    26  25  96 NW3       30.12S FOG
RIVERTON       CLOUDY    25  23  92 E5        30.13S WCI  19
CASPER         LGT SNOW  23  20  88 SE6       30.14F FOG     WCI  16
DOUGLAS        LGT SNOW N/A N/A N/A NW9       30.16F

$$
WYZ021-027>030-104>119-261100-
SOUTHERN WYOMING

CITY           SKY/WX    TMP DP  RH WIND       PRES   REMARKS
EVANSTON       MOCLDY    36  30  79 W31G38    30.26R WCI  23
FORT BRIDGER   CLOUDY    39  33  79 W21G29    30.28S WCI  29
ROCK SPRINGS   CLOUDY    37  31  78 W29G39    30.15F WCI  25
DIXON          CLOUDY    38  29  72 SW14G20   30.21R WCI  29
RAWLINS        CLOUDY    36  31  82 W23       30.08S WCI  24
SARATOGA       CLOUDY    37  32  81 W24G33    30.11R WCI  26
LARAMIE        FLURRIES  20  17  88 N6        30.09R WCI  12
CHEYENNE       LGT SNOW  23  17  78 N15G22    30.12R WCI  10
TORRINGTON     CLOUDY    29  23  78 NW10      30.15R WCI  20
PINE BLUFFS    FLURRIES  27  21  80 NW16      30.14R WCI  14

$$


USA.gov is the U.S. government's official web portal to all federal, state and local government web resources and services.